CZ-6A DEB, 55882

Orbit data source: Space-Track

CZ-6A DEB, 55882 is space debris in SSO originally from a launch on Fri, 11 Nov 2022 UTC launched from the Taiyaun Space Center, China (TSC). Debris objects in space refer to the collection of defunct objects orbiting the Earth. Examples of debris include non-operational satellites, rocket bodies, and fragments generated from explosions, collisions, or faulty payload assembly.

Loading next visibility...
Identifier
55882, 2022-151AAE
Orbit
SSO
Country
Flag of CNCN / PRC
Related business
Manufacturer
SAST
Mission
Spacecraft
Bus & Motor
Unknown
Mass
Unknown
Launch date (UTC)
2022-11-11 (3 years ago)
Launch vehicle
Unknown
Launch site
Taiyaun Space Center, China (TSC)
Object type
Payload
Rocket body
Debris
Shape & HBR
Unknown shape, 0.1 m
Radar Cross Section
Small (<0.1 m²)

Expand to show TLE details & history
Last TLE update: 3 days ago

TLE from 3 days ago
0 CZ-6A DEB
1 55882U 22151AAE 25348.27485301  .00002270  00000-0  11791-2 0  9993
2 55882  98.8214 348.6291 0047290 140.5457 219.9176 14.15134862146925
Epoch: 2025-12-14T06:35Z
TLE epoch observation values (Epoch: 2025-12-14T06:35:47.300Z)
Latitude
0.00005°
Longitude
166.4919°
Altitude
871.016 km
Speed
7.403 km/s
True Right ascension
23h 14m 30s
True Declination
0° 00' 00"
Sunlit
Object was in daylight at epoch
Visualization orbit readout
Latitude
Unknown
Longitude
Unknown
Altitude
Unknown
Speed
Unknown
Apparent Right ascension
Unknown
Apparent Declination
Unknown
Sunlit
N/A
Visualization observer readout
Local Sidereal Time
19:59:17
Azimuth
Unknown
Elevation
Unknown
Doppler factor
Unknown
Orbital elements
Apogee altitude
873.154 km
Perigee altitude
804.894 km
Semi-major axis
7,217.161 km
Eccentricity
0.00473
Inclination
98.8214°
RAAN
348.6291°
Arg. of periapsis
140.5457°
True anomaly
219.57144°
Mean anomaly
219.9176°
Eccentric anomaly
219.74436°
Mean motion
3.53992 °/min
Orbital period
101.7 mins
BSTAR
0.0011791
Loading maneuver chart data...
Computing Atmospheric mass density...
Loading historical data...
Loading historical data...
Loading historical data...
Loading historical data...
Loading historical data...
Loading historical data...
Loading historical data...

Documentation

Showing up to 5 results
|